Radiation Dose at Monitoring Post of Fukushima Daini Nuclear Power Station
Date,Time,MP-1(microSv/h),MP-2(microSv/h),MP-3(microSv/h),MP-4(microSv/h),MP-5(microSv/h),MP-6(microSv/h),MP-7(microSv/h),Wind Direction,Wind Velocity(m/s),Rain
2014/11/09,00:00,0.624,0.413,0.658,0.595,0.587,0.273,0.240,-,CALM,No
2014/11/09,00:10,0.623,0.413,0.658,0.593,0.589,0.271,0.240,-,CALM,No
2014/11/09,00:20,0.624,0.414,0.659,0.594,0.588,0.273,0.239,-,CALM,No
2014/11/09,00:30,0.622,0.412,0.657,0.593,0.587,0.271,0.240,-,CALM,No
2014/11/09,00:40,0.624,0.412,0.660,0.594,0.588,0.272,0.240,-,CALM,No
2014/11/09,00:50,0.622,0.413,0.657,0.594,0.588,0.272,0.239,northwest,0.6,No
2014/11/09,01:00,0.624,0.413,0.658,0.594,0.589,0.272,0.241,northwest,1.4,No
2014/11/09,01:10,0.625,0.413,0.658,0.596,0.587,0.272,0.239,northwest,1.6,No
2014/11/09,01:20,0.624,0.413,0.658,0.593,0.588,0.273,0.239,north-northwest,2.2,No
2014/11/09,01:30,0.624,0.413,0.657,0.593,0.588,0.272,0.239,north-northwest,2.2,No
2014/11/09,01:40,0.624,0.413,0.658,0.593,0.589,0.272,0.240,north-northwest,2.5,No
2014/11/09,01:50,0.624,0.413,0.659,0.593,0.590,0.271,0.240,north,2.6,No
2014/11/09,02:00,0.624,0.414,0.658,0.593,0.588,0.271,0.239,north,4.2,No
2014/11/09,02:10,0.625,0.412,0.660,0.594,0.592,0.272,0.239,north-northwest,4.8,No
2014/11/09,02:20,0.624,0.413,0.657,0.595,0.590,0.273,0.238,north-northwest,5.8,No
2014/11/09,02:30,0.623,0.413,0.657,0.594,0.590,0.273,0.239,north-northwest,6.1,No
2014/11/09,02:40,0.623,0.413,0.660,0.594,0.589,0.272,0.239,north-northwest,6.4,No
2014/11/09,02:50,0.625,0.414,0.659,0.594,0.591,0.272,0.240,north-northwest,6.2,No
2014/11/09,03:00,0.625,0.413,0.659,0.596,0.590,0.272,0.240,north-northwest,6.4,No
2014/11/09,03:10,0.624,0.414,0.659,0.594,0.588,0.272,0.240,north-northwest,6.1,No
2014/11/09,03:20,0.624,0.414,0.659,0.596,0.588,0.273,0.239,north-northwest,6.0,No
2014/11/09,03:30,0.625,0.412,0.658,0.593,0.589,0.271,0.240,north,6.4,No
2014/11/09,03:40,0.623,0.414,0.660,0.595,0.588,0.272,0.238,north,5.6,No
2014/11/09,03:50,0.624,0.414,0.659,0.595,0.588,0.272,0.238,north,4.8,No
2014/11/09,04:00,0.625,0.413,0.658,0.592,0.589,0.272,0.238,north,5.3,No
2014/11/09,04:10,0.623,0.413,0.658,0.595,0.588,0.270,0.238,north,5.1,No
2014/11/09,04:20,0.623,0.413,0.657,0.592,0.589,0.272,0.239,north,5.2,No
2014/11/09,04:30,0.624,0.412,0.658,0.593,0.589,0.272,0.238,north,5.0,No
2014/11/09,04:40,0.625,0.413,0.658,0.595,0.588,0.273,0.238,north,5.3,No
2014/11/09,04:50,0.622,0.413,0.657,0.594,0.590,0.273,0.240,north,5.5,No
2014/11/09,05:00,0.622,0.414,0.657,0.594,0.588,0.272,0.239,north,5.3,No
2014/11/09,05:10,0.623,0.413,0.658,0.593,0.588,0.270,0.238,north,5.2,No
2014/11/09,05:20,0.622,0.414,0.658,0.593,0.589,0.272,0.238,north,5.4,No
2014/11/09,05:30,0.621,0.414,0.658,0.593,0.588,0.272,0.238,north,5.0,No
2014/11/09,05:40,0.624,0.411,0.658,0.594,0.588,0.271,0.241,north,5.1,No
2014/11/09,05:50,0.623,0.412,0.658,0.593,0.589,0.272,0.239,north,5.6,No
2014/11/09,06:00,0.625,0.412,0.659,0.592,0.588,0.273,0.239,north,6.2,No
2014/11/09,06:10,0.624,0.412,0.660,0.594,0.589,0.273,0.239,north,6.4,No
2014/11/09,06:20,0.624,0.412,0.659,0.593,0.590,0.272,0.240,north-northwest,5.3,No
2014/11/09,06:30,0.624,0.412,0.657,0.594,0.590,0.272,0.238,north-northwest,5.6,No
2014/11/09,06:40,0.624,0.414,0.660,0.593,0.588,0.271,0.238,north-northwest,5.6,No
2014/11/09,06:50,0.624,0.414,0.656,0.594,0.588,0.272,0.238,north-northwest,5.5,No
2014/11/09,07:00,0.625,0.414,0.659,0.593,0.589,0.271,0.239,north,5.8,No
2014/11/09,07:10,0.624,0.414,0.660,0.595,0.591,0.272,0.239,north-northwest,5.3,No
2014/11/09,07:20,0.624,0.413,0.658,0.594,0.588,0.271,0.239,north,4.9,No
2014/11/09,07:30,0.625,0.413,0.659,0.594,0.590,0.272,0.239,north,4.6,No
2014/11/09,07:40,0.623,0.413,0.658,0.593,0.588,0.272,0.239,north,4.6,No
2014/11/09,07:50,0.623,0.414,0.658,0.594,0.590,0.272,0.239,north,5.2,No
2014/11/09,08:00,0.626,0.413,0.659,0.594,0.590,0.273,0.239,north,5.0,No
2014/11/09,08:10,0.624,0.413,0.657,0.595,0.587,0.272,0.238,north,5.2,No
2014/11/09,08:20,0.623,0.412,0.657,0.595,0.589,0.272,0.240,north,5.0,No
2014/11/09,08:30,0.623,0.413,0.658,0.594,0.589,0.272,0.238,north,3.9,No
2014/11/09,08:40,0.624,0.414,0.659,0.594,0.590,0.273,0.241,north,2.9,No
2014/11/09,08:50,0.624,0.414,0.659,0.596,0.589,0.272,0.240,north,3.3,No
2014/11/09,09:00,0.624,0.415,0.660,0.595,0.590,0.273,0.240,north,3.1,No
2014/11/09,09:10,0.624,0.414,0.660,0.595,0.591,0.273,0.238,north,3.9,No
2014/11/09,09:20,0.624,0.414,0.660,0.596,0.590,0.272,0.238,north,4.2,No
2014/11/09,09:30,0.624,0.415,0.659,0.596,0.590,0.274,0.241,north,3.5,No
2014/11/09,09:40,0.625,0.415,0.659,0.597,0.590,0.271,0.238,north,2.8,No
2014/11/09,09:50,0.625,0.413,0.660,0.594,0.591,0.273,0.241,north,2.5,No
2014/11/09,10:00,0.625,0.415,0.658,0.596,0.591,0.272,0.239,north-northwest,2.1,No
2014/11/09,10:10,0.625,0.414,0.660,0.596,0.590,0.274,0.240,north-northeast,2.8,No
2014/11/09,10:20,0.625,0.413,0.660,0.594,0.590,0.273,0.239,north,3.8,No
2014/11/09,10:30,0.625,0.413,0.662,0.595,0.591,0.272,0.240,north,2.5,No
2014/11/09,10:40,0.624,0.413,0.659,0.595,0.589,0.272,0.239,north-northwest,1.9,No
2014/11/09,10:50,0.624,0.413,0.659,0.594,0.591,0.272,0.240,north,2.7,Yes
2014/11/09,11:00,0.624,0.414,0.658,0.595,0.590,0.272,0.239,north,2.3,Yes
2014/11/09,11:10,0.623,0.414,0.659,0.596,0.589,0.272,0.241,north,2.8,Yes
2014/11/09,11:20,0.624,0.415,0.660,0.596,0.588,0.273,0.240,north-northwest,2.5,Yes
2014/11/09,11:30,0.624,0.414,0.660,0.594,0.591,0.272,0.240,north-northwest,3.6,Yes
2014/11/09,11:40,0.624,0.414,0.658,0.594,0.589,0.273,0.240,north,3.3,No
2014/11/09,11:50,0.624,0.413,0.658,0.595,0.590,0.273,0.238,north,4.1,No
2014/11/09,12:00,0.626,0.414,0.660,0.596,0.589,0.272,0.239,north,3.3,No
2014/11/09,12:10,0.624,0.414,0.658,0.595,0.591,0.272,0.239,north,2.0,No
2014/11/09,12:20,0.624,0.414,0.657,0.596,0.589,0.272,0.240,north,3.3,No
2014/11/09,12:30,0.624,0.412,0.658,0.595,0.589,0.272,0.239,north,2.8,No
2014/11/09,12:40,0.624,0.414,0.659,0.594,0.588,0.271,0.240,north,3.7,No
2014/11/09,12:50,0.624,0.414,0.659,0.595,0.590,0.271,0.239,north,3.1,No
2014/11/09,13:00,0.625,0.414,0.660,0.594,0.588,0.273,0.239,north,3.3,No
2014/11/09,13:10,0.624,0.414,0.659,0.594,0.589,0.272,0.239,north,3.6,Yes
2014/11/09,13:20,0.626,0.413,0.660,0.595,0.588,0.272,0.239,north,4.5,Yes
2014/11/09,13:30,0.626,0.415,0.659,0.594,0.588,0.273,0.240,north-northwest,4.4,Yes
2014/11/09,13:40,0.620,0.413,0.656,0.590,0.586,0.273,0.239,north-northwest,5.2,Yes
2014/11/09,13:50,0.618,0.412,0.652,0.587,0.585,0.274,0.237,north-northwest,4.6,Yes
2014/11/09,14:00,0.617,0.412,0.652,0.587,0.585,0.272,0.239,north-northwest,5.2,Yes
2014/11/09,14:10,0.618,0.411,0.649,0.585,0.586,0.274,0.238,north-northwest,5.2,Yes
2014/11/09,14:20,0.617,0.410,0.648,0.586,0.584,0.273,0.238,northwest,5.0,Yes
2014/11/09,14:30,0.617,0.412,0.649,0.584,0.585,0.272,0.238,north-northwest,5.3,Yes
2014/11/09,14:40,0.615,0.410,0.647,0.584,0.585,0.273,0.238,north-northwest,5.7,Yes
2014/11/09,14:50,0.614,0.409,0.646,0.585,0.585,0.272,0.237,north-northwest,5.3,Yes
2014/11/09,15:00,0.614,0.408,0.645,0.584,0.585,0.272,0.239,north,0.6,Yes
2014/11/09,15:10,0.613,0.408,0.644,0.584,0.585,0.271,0.236,north-northwest,4.8,Yes
2014/11/09,15:20,0.613,0.409,0.644,0.584,0.584,0.271,0.235,north,4.7,Yes
2014/11/09,15:30,0.612,0.408,0.642,0.582,0.584,0.272,0.237,north-northwest,4.7,Yes
2014/11/09,15:40,0.612,0.408,0.641,0.580,0.583,0.272,0.236,north,3.8,Yes
2014/11/09,15:50,0.613,0.408,0.642,0.581,0.584,0.271,0.237,north,4.9,Yes
2014/11/09,16:00,0.611,0.407,0.641,0.581,0.586,0.271,0.236,north-northwest,4.7,Yes
2014/11/09,16:10,0.611,0.407,0.640,0.581,0.583,0.271,0.236,north-northwest,4.5,Yes
2014/11/09,16:20,0.611,0.406,0.639,0.580,0.584,0.270,0.236,north,3.7,Yes
2014/11/09,16:30,0.610,0.407,0.639,0.579,0.583,0.269,0.235,north,2.9,Yes
2014/11/09,16:40,0.608,0.404,0.639,0.578,0.584,0.268,0.233,north,2.4,Yes
2014/11/09,16:50,0.607,0.405,0.636,0.578,0.581,0.267,0.234,north-northwest,2.5,No
2014/11/09,17:00,0.607,0.403,0.637,0.576,0.582,0.267,0.231,north-northwest,2.7,No
2014/11/09,17:10,0.608,0.403,0.638,0.576,0.582,0.267,0.233,north-northwest,2.9,Yes
2014/11/09,17:20,0.608,0.403,0.636,0.577,0.583,0.266,0.232,north-northwest,2.6,Yes
2014/11/09,17:30,0.609,0.403,0.639,0.577,0.581,0.266,0.232,north-northwest,2.5,Yes
2014/11/09,17:40,0.608,0.404,0.636,0.578,0.582,0.266,0.232,north-northwest,3.0,Yes
2014/11/09,17:50,0.610,0.404,0.637,0.577,0.581,0.265,0.232,northwest,2.4,Yes
2014/11/09,18:00,0.605,0.402,0.635,0.577,0.580,0.265,0.230,northwest,1.5,No
2014/11/09,18:10,0.607,0.402,0.638,0.576,0.580,0.265,0.231,north-northwest,1.7,No
2014/11/09,18:20,0.606,0.402,0.638,0.577,0.579,0.265,0.231,north-northeast,0.6,Yes
2014/11/09,18:30,0.606,0.402,0.638,0.575,0.580,0.265,0.230,-,CALM,No
2014/11/09,18:40,0.607,0.402,0.635,0.577,0.580,0.265,0.230,-,CALM,No
2014/11/09,18:50,0.606,0.401,0.634,0.578,0.580,0.265,0.230,-,CALM,No
2014/11/09,19:00,0.609,0.403,0.637,0.577,0.579,0.265,0.230,-,CALM,No
2014/11/09,19:10,0.605,0.401,0.636,0.575,0.579,0.264,0.231,south-southeast,0.5,No
2014/11/09,19:20,0.605,0.402,0.636,0.577,0.580,0.264,0.230,south,1.1,No
2014/11/09,19:30,0.606,0.402,0.637,0.576,0.579,0.264,0.230,south,0.7,No
2014/11/09,19:40,0.608,0.402,0.637,0.576,0.579,0.264,0.229,southwest,1.2,No
2014/11/09,19:50,0.607,0.403,0.636,0.576,0.581,0.265,0.229,west-southwest,0.9,No
2014/11/09,20:00,0.607,0.400,0.637,0.576,0.580,0.265,0.231,-,CALM,No
2014/11/09,20:10,0.606,0.402,0.638,0.576,0.579,0.264,0.230,-,CALM,No
2014/11/09,20:20,0.607,0.401,0.637,0.578,0.580,0.264,0.230,-,CALM,No
2014/11/09,20:30,0.607,0.402,0.638,0.576,0.582,0.265,0.231,north-northeast,0.6,No
2014/11/09,20:40,0.607,0.401,0.638,0.579,0.580,0.264,0.230,west-northwest,1.3,No
2014/11/09,20:50,0.607,0.403,0.637,0.578,0.582,0.264,0.231,west,0.6,No
2014/11/09,21:00,0.608,0.403,0.639,0.579,0.581,0.263,0.231,-,CALM,No
2014/11/09,21:10,0.610,0.403,0.637,0.577,0.580,0.265,0.230,-,CALM,No
2014/11/09,21:20,0.607,0.403,0.640,0.579,0.580,0.264,0.231,-,CALM,No
2014/11/09,21:30,0.608,0.403,0.638,0.576,0.580,0.265,0.230,-,CALM,Yes
2014/11/09,21:40,0.608,0.403,0.638,0.579,0.582,0.266,0.233,northeast,0.7,Yes
2014/11/09,21:50,0.608,0.403,0.639,0.578,0.583,0.266,0.232,north,0.7,Yes
2014/11/09,22:00,0.607,0.403,0.641,0.579,0.583,0.266,0.231,north-northwest,0.8,Yes
2014/11/09,22:10,0.608,0.402,0.638,0.580,0.583,0.265,0.232,north,1.5,Yes
2014/11/09,22:20,0.609,0.403,0.637,0.577,0.582,0.266,0.231,east,0.6,Yes
2014/11/09,22:30,0.608,0.402,0.638,0.579,0.583,0.265,0.231,-,CALM,Yes
2014/11/09,22:40,0.609,0.404,0.640,0.577,0.581,0.267,0.232,northwest,0.8,Yes
2014/11/09,22:50,0.608,0.402,0.640,0.580,0.582,0.265,0.232,northwest,1.5,No
2014/11/09,23:00,0.610,0.404,0.641,0.578,0.582,0.266,0.232,north,1.9,No
2014/11/09,23:10,0.607,0.403,0.640,0.579,0.581,0.266,0.231,north-northwest,1.1,Yes
2014/11/09,23:20,0.608,0.404,0.640,0.577,0.581,0.266,0.231,north,1.4,No
2014/11/09,23:30,0.609,0.403,0.640,0.577,0.582,0.266,0.231,north-northeast,0.6,No
2014/11/09,23:40,0.608,0.403,0.639,0.578,0.582,0.265,0.231,-,CALM,Yes
2014/11/09,23:50,0.608,0.403,0.639,0.578,0.580,0.265,0.232,-,CALM,Yes
